ONEWEB-0231 (48782 NORAD) Tracking and Keplerian Element Data

This shows tracking and keplerian element data for the satellite.

Feedback or suggestion? Click here.




ElementValue
Catalog48782
NameONEWEB-0231
Epoch Orbit175
Epoch Day170.58334491
Epoch Year2021
RAAN268.8564
Inclination87.406
Eccentricity0.0007164
Argument of Perigee181.5643
Mean Anonmoly7.8005
Mean Motion15.3617202
Decay Rate-0.00952925
L11 48782U 21045R 21170.58334491 -.00952925 00000-0 -29601-1 0 9992
L22 48782 87.4060 268.8564 0007164 181.5643 7.8005 15.36172020 1751

Live tracking and technical data element details for ONEWEB-0231 (NORAD 48782). ONEWEB-0231 can be tracked NOW for your location showing map with azimuth and elevation plus other details from your city location.

Track the satellite on the map from your city or location and see movement details for azimuth, elevation, latitude, longitude, range, height, and movement on the map or in text.







IsCatalogInMostPopularTable: catalog: 48782, numindb: 7
Update: records affected: 1



GetName: 48782 ONEWEB-0231

Hit Count: updated at: Mon, 21 Jun 2021 03:25:36 GMT